Starlink 30105

operational
NORAD ID: 57433 Int'l Des: 2023-105 Owner: SPXS Country: US Constellation: starlink
LEOCIRCULAR

About Starlink 30105

Description loading...

Live Position

Loading 3D Globe...

Upcoming Passes

Altitude History

Altitude vs Time

uPlot chart will show altitude changes over time

Two-Line Element Set

1 57433U 23105D 25303.68932955 -.00000188 00000-0 27038-5 0 9996
2 57433 43.0029 45.0038 0001414 281.5997 78.4696 15.27577706128449
Epoch: Oct 30, 2025 • Age: 8 hours

Current Status

Altitude 486.4 km
Velocity 7.63 km/s
Sub-Earth Point 39.78°N, 107.78°E
Launch Date Jul 24, 2023
Age 2.2 years
Type internet

Technical Details

Classification Payload
Mass 730.00 kg
Dry Mass 700.00 kg
Total Mass 730.00 kg
Length 0.30 m
Diameter 4.10 m
Span 29.00 m
Shape Box + pan
Manufacturer SPXS
Bus Type Starlink V2M
Phase Status In Orbit
Owner/State SPXS/US

Large Constellations

Loading constellations...